Location: Cedar Brake
(32.2526°N, 97.8459°W)
Time: 08:02:15
(UTC+00:00)

Helios 1A Rocket - Pass Details

Date: 22 April 2026
Orbit: 405 x 416 km, 98.3° (Epoch: 15 May)

Event Time Altitude Azimuth Distance (km) Brightness Sun altitude
Rises 02:34:14 0° 5° (N) 2,363 6.4 -18.3°
Reaches altitude 10° 02:36:17 10° 359° (N) 1,493 5.4 -18.7°
Maximum altitude 02:39:20 44° 285° (WNW) 580 3.4 -19.2°
Drops below altitude 10° 02:42:21 10° 212° (SSW) 1,473 5.0 -19.8°
Enters shadow 02:43:43 - 207° (SSW) 2,053 5.7 -20.1°
